User: anonymous   Login
Location: Unspecified
(0.0000°N, 0.0000°E)
Time: 14:49:32
(UTC+00:00)
Language:

APRIZESAT 7 - Orbit

View from above orbital plane
View from above orbital plane
View from above satellite
View from above satellite

Ground track
Ground track

The orbit data is extracted from the following two-line orbital elements,

1 39416U 13066A   17206.20157150 +.00000067 +00000-0 +14227-4 0  9999
2 39416 097.6307 254.6462 0042601 126.8764 233.6368 14.83708942198839
Epoch (UTC): 25 July 2017 04:50:15
Eccentricity: 0.0042601
inclination: 97.6307°
perigee height: 588 km
apogee height: 647 km
right ascension of ascending node: 254.6462°
argument of perigee: 126.8764°
revolutions per day: 14.83708942
mean anomaly at epoch: 233.6368°
orbit number at epoch: 19883

The dashed part of the orbit path shows where the satellite is in the earth's shadow,  

DLR